Location: Unspecified
(0.0000°N, 0.0000°E)
Time: 00:25:08
(UTC+00:00)

Traac - Pass Details

Date: 15 December 2025
Orbit: 951 x 1102 km, 32.4° (Epoch: 19 January)

Event Time Altitude Azimuth Distance (km) Brightness Sun altitude
Exits shadow 04:19:17 16° 352° (N) 2,476 9.8 -21.9°
Maximum altitude 04:23:03 24° 32° (NNE) 2,064 9.7 -21.0°
Drops below altitude 10° 04:28:38 10° 83° (E) 2,937 11.3 -19.8°
Sets 04:32:00 0° 97° (E) 3,904 12.5 -19.0°
